EW6892 Weather Reports


Display with metric or nautical units.
time (UTC)temp
F
wind
direction
speed
MPH
gust
MPH
rain 1hr
in
rain 24hr
in
rain mn
in
humidity
%
barometer
mb
20210301060546 40 0.0 0.0 0.00 0.00 0.00 77 1020.7
20210301055537 41 0.0 0.0 0.00 0.00 0.00 75 1020.7
20210301054551 42 0.0 0.0 0.00 0.00 0.00 76 1020.7
20210301053525 41 0.0 2.0 0.00 0.00 0.00 76 1020.7
20210301052637 41 0.0 1.0 0.00 0.00 0.00 74 1020.9
20210301051611 42 0.0 0.0 0.00 0.00 0.00 74 1020.9
20210301050606 42 0.0 0.0 0.00 0.00 0.00 73 1021.0
20210301045558 43 0.0 0.0 0.00 0.00 0.00 73 1020.6
20210301044605 43 0.0 2.0 0.00 0.00 0.00 72 1020.6
20210301043545 44 0.0 0.0 0.00 0.00 0.00 70 1020.5
20210301042622 44 0.0 0.0 0.00 0.00 0.00 70 1020.7
20210301041531 45 0.0 1.0 0.00 0.00 0.00 71 1020.7
20210301040545 44 0.0 2.0 0.00 0.00 0.00 72 1020.8
20210301035518 44 0.0 1.0 0.00 0.00 0.00 72 1020.8
20210301034619 45 0.0 0.0 0.00 0.00 0.00 68 1020.8
20210301033608 46 0.0 0.0 0.00 0.00 0.00 67 1020.8
20210301032707 47 0.0 0.0 0.00 0.00 0.00 67 1020.8
20210301031556 47 0.0 2.0 0.00 0.00 0.00 67 1020.8
20210301030554 48 195 0.0 2.0 0.00 0.00 0.00 67 1020.9
20210301025538 48 0.0 2.0 0.00 0.00 0.00 64 1020.9
20210301024532 49 207 1.0 2.0 0.00 0.00 0.00 62 1021.0
20210301023526 50 0.0 2.0 0.00 0.00 0.00 58 1021.1
20210301022829 51 0.0 1.0 0.00 0.00 0.00 55 1021.0
20210301021610 52 0.0 1.0 0.00 0.00 0.00 53 1021.1
20210301020605 52 0.0 1.0 0.00 0.00 0.00 48 1021.1
20210301015559 53 0.0 0.0 0.00 0.00 0.00 47 1021.2
20210301014555 54 0.0 1.0 0.00 0.00 0.00 45 1021.3
20210301013544 55 0.0 0.0 0.00 0.00 0.00 44 1021.4
20210301012612 56 0.0 0.0 0.00 0.00 0.00 45 1021.4
20210301011546 56 0.0 1.0 0.00 0.00 0.00 45 1021.5
20210301010555 56 90 0.0 2.0 0.00 0.00 0.00 45 1021.5
20210301005617 56 90 0.0 2.0 0.00 0.00 0.00 43 1021.6
20210301004611 56 72 1.0 2.0 0.00 0.00 0.00 44 1021.7
20210301003611 57 59 1.0 3.0 0.00 0.00 0.00 44 1021.8
20210301002751 57 90 0.0 2.0 0.00 0.00 0.00 45 1021.9
20210301001550 56 0.0 1.0 0.00 0.00 0.00 46 1022.0
20210301000550 56 45 1.0 4.0 0.00 0.00 0.00 45 1022.2
20210228235546 56 45 0.0 3.0 0.00 0.00 0.00 45 1022.3
20210228234532 56 78 1.0 4.0 0.00 0.00 0.00 45 1022.5
20210228233525 57 45 1.0 3.0 0.00 0.00 0.00 42 1022.6
20210228232747 58 119 1.0 2.0 0.00 0.00 0.00 39 1022.7
20210228231611 58 61 1.0 3.0 0.00 0.00 0.00 38 1022.7
20210228230609 59 212 1.0 2.0 0.00 0.00 0.00 37 1023.0
20210228225600 59 56 1.0 3.0 0.00 0.00 0.00 38 1023.1
20210228224548 59 94 1.0 4.0 0.00 0.00 0.00 37 1023.2
20210228223547 59 68 1.0 2.0 0.00 0.00 0.00 37 1023.4
20210228222600 59 45 1.0 2.0 0.00 0.00 0.00 37 1023.4
20210228221528 59 157 1.0 3.0 0.00 0.00 0.00 40 1023.5
20210228220524 57 63 1.0 4.0 0.00 0.00 0.00 41 1023.7
20210228215617 55 176 0.0 4.0 0.00 0.00 0.00 44 1023.8
20210228214609 54 90 0.0 4.0 0.00 0.00 0.00 44 1023.9
20210228213604 54 90 1.0 2.0 0.00 0.00 0.00 45 1024.1
20210228212642 54 14 1.0 2.0 0.00 0.00 0.00 48 1024.3
20210228211551 52 62 0.0 2.0 0.00 0.00 0.00 49 1024.6
20210228210551 52 55 1.0 4.0 0.00 0.00 0.00 49 1024.7
20210228205543 52 69 1.0 3.0 0.00 0.00 0.00 49 1024.9
20210228204534 53 40 0.0 3.0 0.00 0.00 0.00 48 1025.2
20210228203533 54 162 0.0 3.0 0.00 0.00 0.00 46 1025.3
20210228202539 54 96 1.0 3.0 0.00 0.00 0.00 45 1025.4
20210228201611 56 52 1.0 3.0 0.00 0.00 0.00 43 1025.8
20210228200606 57 0.0 1.0 0.00 0.00 0.00 44 1026.0
20210228195603 56 0.0 1.0 0.00 0.00 0.00 45 1026.2
20210228194555 57 11 0.0 3.0 0.00 0.00 0.00 44 1026.5
20210228193550 57 0.0 2.0 0.00 0.00 0.00 46 1026.7
20210228192800 55 0 0.0 2.0 0.00 0.00 0.00 45 1026.9
20210228191533 55 0.0 2.0 0.00 0.00 0.00 46 1027.1
20210228190531 54 45 1.0 2.0 0.00 0.00 0.00 46 1027.3
20210228185538 54 0.0 1.0 0.00 0.00 0.00 47 1027.4
20210228184615 54 90 0.0 2.0 0.00 0.00 0.00 46 1027.6
20210228183609 55 0.0 1.0 0.00 0.00 0.00 52 1027.7
20210228182743 53 0.0 1.0 0.00 0.00 0.00 54 1027.8
20210228181556 51 0.0 1.0 0.00 0.00 0.00 57 1028.0
20210228180552 49 0.0 1.0 0.00 0.00 0.00 65 1028.2
20210228175544 46 0.0 1.0 0.00 0.00 0.00 66 1028.2
20210228174548 43 0.0 1.0 0.00 0.00 0.00 74 1028.3
20210228173532 39 0.0 1.0 0.00 0.00 0.00 77 1028.4
20210228172637 39 0.0 1.0 0.00 0.00 0.00 75 1028.5
20210228171615 40 0.0 2.0 0.00 0.00 0.00 73 1028.5
20210228170609 41 0.0 1.0 0.00 0.00 0.00 74 1028.5
20210228165607 40 0.0 2.0 0.00 0.00 0.00 73 1028.6
20210228164554 42 0.0 0.0 0.00 0.00 0.00 74 1028.6
20210228163545 43 0.0 0.0 0.00 0.00 0.00 82 1028.6
20210228162840 38 0.0 0.0 0.00 0.00 0.00 85 1028.5
20210228161533 36 0.0 1.0 0.00 0.00 0.00 85 1028.3
20210228160540 34 0.0 0.0 0.00 0.00 0.00 89 1028.4
20210228155522 29 0.0 0.0 0.00 0.00 0.00 89 1028.3
20210228154631 27 0.0 0.0 0.00 0.00 0.00 85 1028.3
20210228153608 27 0.0 0.0 0.00 0.00 0.00 84 1028.3
20210228152923 26 0.0 0.0 0.00 0.00 0.00 85 1028.2
20210228151557 26 0.0 0.0 0.00 0.00 0.00 85 1028.1
20210228150550 26 0.0 0.0 0.00 0.00 0.00 85 1027.9
20210228145542 26 0.0 0.0 0.00 0.00 0.00 84 1027.9
20210228144550 26 0.0 0.0 0.00 0.00 0.00 84 1028.1
20210228143528 26 0.0 0.0 0.00 0.00 0.00 84 1028.0
20210228142725 26 0.0 0.0 0.00 0.00 0.00 84 1028.0
20210228141616 27 0.0 0.0 0.00 0.00 0.00 83 1027.9
20210228140608 27 0.0 0.0 0.00 0.00 0.00 83 1027.9
20210228135600 27 0.0 0.0 0.00 0.00 0.00 83 1027.9
20210228134554 27 0.0 0.0 0.00 0.00 0.00 83 1027.7
20210228133547 27 0.0 0.0 0.00 0.00 0.00 83 1027.7
20210228132647 27 0.0 0.0 0.00 0.00 0.00 83 1027.8
20210228131533 28 0.0 0.0 0.00 0.00 0.00 83 1027.7
20210228130524 28 0.0 0.0 0.00 0.00 0.00 83 1027.6
20210228125522 28 0.0 0.0 0.00 0.00 0.00 83 1027.6
20210228124610 28 0.0 0.0 0.00 0.00 0.00 83 1027.5
20210228123612 28 0.0 0.0 0.00 0.00 0.00 83 1027.5
20210228122911 28 0.0 0.0 0.00 0.00 0.00 83 1027.5
20210228121549 28 0.0 0.0 0.00 0.00 0.00 83 1027.4
20210228120541 28 0.0 0.0 0.00 0.00 0.00 87 1027.4
20210228115556 29 0.0 0.0 0.00 0.00 0.00 87 1027.3
20210228114532 29 0.0 0.0 0.00 0.00 0.00 87 1027.5
20210228113532 29 0.0 0.0 0.00 0.00 0.00 86 1027.6
20210228112629 29 0.0 0.0 0.00 0.00 0.00 86 1027.6
20210228111618 29 0.0 0.0 0.00 0.00 0.00 86 1027.6
20210228110605 29 0.0 0.0 0.00 0.00 0.00 86 1027.6
20210228105555 29 0.0 0.0 0.00 0.00 0.00 86 1027.8
20210228104558 29 0.0 0.0 0.00 0.00 0.00 86 1027.8
20210228103605 29 0.0 0.0 0.00 0.00 0.00 86 1027.7
20210228102922 29 0.0 0.0 0.00 0.00 0.00 85 1027.6
20210228101531 29 0.0 0.0 0.00 0.00 0.00 85 1027.5
20210228100540 30 0.0 0.0 0.00 0.00 0.00 85 1027.4
20210228095535 30 0.0 0.0 0.00 0.00 0.00 85 1027.6
20210228094609 30 0.0 0.0 0.00 0.00 0.00 85 1027.6
20210228093602 30 0.0 0.0 0.00 0.00 0.00 84 1027.7
20210228092638 30 0.0 0.0 0.00 0.00 0.00 83 1027.8
20210228091550 31 0.0 0.0 0.00 0.00 0.00 83 1027.7
20210228090543 31 0.0 0.0 0.00 0.00 0.00 82 1027.7
20210228085537 31 0.0 0.0 0.00 0.00 0.00 82 1027.6
20210228084535 31 0.0 0.0 0.00 0.00 0.00 82 1027.5
20210228083529 31 0.0 0.0 0.00 0.00 0.00 81 1027.5
20210228082722 32 0.0 0.0 0.00 0.00 0.00 80 1027.4
20210228081608 32 0.0 0.0 0.00 0.00 0.00 80 1027.4
20210228080603 33 0.0 0.0 0.00 0.00 0.00 81 1027.4
20210228075555 33 0.0 0.0 0.00 0.00 0.00 81 1027.4
20210228074545 33 0.0 1.0 0.00 0.00 0.00 80 1027.2
20210228073538 33 0.0 0.0 0.00 0.00 0.00 79 1027.3
20210228072622 33 0.0 0.0 0.00 0.00 0.00 79 1027.3
20210228071532 33 0.0 1.0 0.00 0.00 0.00 78 1027.6
20210228070522 34 0.0 0.0 0.00 0.00 0.00 78 1027.7
20210228065614 34 0.0 0.0 0.00 0.00 0.00 76 1027.5
20210228064613 34 0.0 0.0 0.00 0.00 0.00 77 1027.5
20210228063558 34 0.0 0.0 0.00 0.00 0.00 77 1027.4
20210228063025 35 0.0 0.0 0.00 0.00 0.00 77 1027.5
20210228061544 35 0.0 1.0 0.00 0.00 0.00 76 1027.6